Location: Hermaringen
(48.5952°N, 10.2585°E)
Time: 19:54:35
(UTC+00:00)

Tiros 1 despin weight - Visible Passes

Search period start: 15 February 2026 00:00
Search period end: 25 February 2026 00:00
Orbit: 557 x 594 km, 48.2° (Epoch: 13 February)

Date Brightness Start Highest point End Pass type
(mag) Time Alt. Az. Time Alt. Az. Time Alt. Az.
15 Feb ? 18:43:16 10° W 18:47:29 81° S 18:47:52 72° SE visible
15 Feb ? 20:23:55 10° W 20:24:02 11° W 20:24:02 11° W visible
16 Feb ? 17:05:14 10° W 17:09:26 82° S 17:13:39 10° E visible
16 Feb ? 18:45:48 10° W 18:50:00 72° SSW 18:50:22 67° SSE visible
17 Feb ? 18:48:19 10° W 18:52:29 61° SSW 18:52:54 57° SSE visible
18 Feb ? 17:10:16 10° W 17:14:28 86° S 17:18:41 10° E visible
18 Feb ? 18:50:51 10° W 18:54:54 48° SSW 18:55:28 45° S visible
19 Feb ? 17:12:46 10° W 17:16:58 81° S 17:21:11 10° ESE visible
19 Feb ? 18:53:25 10° W 18:57:18 37° SSW 18:58:05 34° S visible
20 Feb ? 17:15:16 10° W 17:19:27 71° SSW 17:23:38 10° ESE visible
20 Feb ? 18:56:03 10° W 18:59:39 28° SSW 19:00:47 24° S visible
21 Feb ? 17:17:45 10° W 17:21:54 60° SSW 17:26:02 10° ESE visible
21 Feb ? 18:58:49 10° W 19:01:56 20° SW 19:03:34 17° S visible
22 Feb ? 17:20:16 10° W 17:24:18 47° SSW 17:28:21 10° SE visible
22 Feb ? 19:01:53 10° WSW 19:04:11 14° SW 19:06:27 10° S visible
23 Feb ? 17:22:48 10° W 17:26:40 36° SSW 17:30:32 10° SE visible
24 Feb ? 17:25:25 10° W 17:28:58 27° SSW 17:32:32 10° SSE visible
